Manitowish Waters, Manitowish, WI

1:07 AM CDT on April 23, 2017 (GMT -0500)
Manitowish Waters, Manitowish

Weather History for KD25 - April, 2014

Change the Weather History Date:

Friday, April 4, 2014

  Actual Average (KARV) Record (KARV)
Temperature  
Mean Temperature 22 °F -  
Max Temperature 28 °F 43 °F 76 °F (1921)
Min Temperature 15 °F 21 °F -7 °F (1923)
Degree Days  
Heating Degree Days 43    
Moisture  
Dew Point 24 °F    
Average Humidity 91    
Maximum Humidity 97    
Minimum Humidity 85    
Precipitation  
Precipitation 0.23 in - - ()
Sea Level Pressure  
Sea Level Pressure 29.70 in    
Wind  
Wind Speed 9 mph (North)    
Max Wind Speed 16 mph    
Max Gust Speed 29 mph    
Visibility 4 miles    
Events Snow    
Averages and records for this station are not official NWS values.
T = Trace of Precipitation, MM = Missing Value Source: NWS Daily Summary

Daily Weather History Graph

Daily Weather History Graph

Search for Another Location

Airport or City:

Trip Planner

Search our weather history database for the weather conditions in past years. The results will help you decide how hot, cold, wet, or windy it might be!

Date:

Astronomy

Apr. 04, 2014 Rise Set
Actual Time 6:33 AM CDT 7:32 PM CDT
Civil Twilight 6:03 AM CDT 8:02 PM CDT
Nautical Twilight 5:26 AM CDT 8:39 PM CDT
Astronomical Twilight 4:48 AM CDT 9:17 PM CDT
Moon 9:38 AM CDT (4/4) 12:02 AM CDT (4/4)
Length of Visible Light 13h 59m
Length of Day
12h 58m
Waxing Crescent, 25% of the Moon is Illuminated
Apr 4
Waxing Crescent
Apr 7
First Quarter
Apr 15
Full
Apr 22
Last Quarter
Apr 29
New

Hourly Weather History & Observations

Time (CDT) Temp. Windchill Dew Point Humidity Pressure Visibility Wind Dir Wind Speed Gust Speed Precip Events Conditions
12:15 AM 25.2 °F 15.7 °F 23.7 °F 94% 29.77 in 1.8 mi ENE 9.2 mph - 0.02 in Snow Light Snow
12:35 AM 25.2 °F 15.7 °F 23.5 °F 94% 29.75 in 3.0 mi NE 9.2 mph - 0.03 in Snow Light Snow
12:55 AM 25.3 °F 16.0 °F 23.5 °F 93% 29.74 in 4.0 mi ENE 9.2 mph - 0.04 in Snow Light Snow
1:15 AM 25.3 °F 16.0 °F 23.5 °F 93% 29.72 in 4.0 mi NE 9.2 mph - 0.01 in Snow Light Snow
1:35 AM 25.3 °F 16.0 °F 23.7 °F 94% 29.71 in 2.5 mi NE 9.2 mph - 0.02 in   Overcast
1:55 AM 25.7 °F 16.4 °F 24.3 °F 94% 29.70 in 5.0 mi NE 9.2 mph - 0.03 in   Overcast
2:15 AM 25.7 °F 18.0 °F 23.9 °F 93% 29.70 in 4.0 mi NNE 6.9 mph - 0.01 in   Overcast
2:35 AM 25.7 °F 19.0 °F 24.3 °F 94% 29.71 in 3.0 mi NE 5.8 mph - 0.02 in   Overcast
2:55 AM 25.7 °F 21.5 °F 24.6 °F 96% 29.71 in 3.0 mi North 3.5 mph - 0.03 in   Overcast
3:15 AM 25.7 °F 18.0 °F 24.8 °F 96% 29.69 in 2.0 mi NNE 6.9 mph - 0.02 in Snow Light Snow
3:35 AM 25.7 °F 19.0 °F 24.8 °F 96% 29.67 in 1.5 mi NNE 5.8 mph - 0.03 in Snow Light Snow
3:55 AM 25.5 °F 16.9 °F 24.6 °F 96% 29.65 in 1.0 mi NNE 8.1 mph - 0.05 in Snow Light Snow
4:15 AM 25.5 °F 15.5 °F 23.9 °F 94% 29.65 in 4.0 mi NE 10.4 mph - 0.01 in Snow Light Snow
4:35 AM 25.5 °F 16.2 °F 24.1 °F 94% 29.64 in 2.5 mi NE 9.2 mph - 0.01 in   Overcast
4:55 AM 26.4 °F 16.0 °F 24.8 °F 94% 29.62 in 4.0 mi ENE 11.5 mph 18.4 mph 0.02 in   Overcast
5:15 AM 26.4 °F 16.0 °F 24.8 °F 94% 29.60 in 5.0 mi ENE 11.5 mph 18.4 mph N/A   Overcast
5:35 AM 26.4 °F 17.3 °F 24.8 °F 94% 29.59 in 7.0 mi NE 9.2 mph - N/A   Overcast
5:55 AM 26.6 °F 16.8 °F 25.2 °F 94% 29.58 in 7.0 mi NE 10.4 mph - N/A   Overcast
6:15 AM 26.6 °F 21.2 °F 25.2 °F 94% 29.60 in 7.0 mi NNE 4.6 mph - N/A   Overcast
6:30 AM 26.6 °F - 25.3 °F 95% 29.63 in 4.0 mi Calm Calm - N/A Snow Light Snow
6:50 AM 26.4 °F 20.9 °F 25.7 °F 97% 29.62 in 1.0 mi North 4.6 mph - 0.01 in Snow Snow
7:15 AM 26.4 °F 17.3 °F 25.7 °F 97% 29.60 in 1.0 mi NNE 9.2 mph - N/A Snow Light Snow
7:35 AM 26.4 °F 18.9 °F 25.5 °F 96% 29.60 in 0.5 mi North 6.9 mph - 0.01 in Snow Snow
7:55 AM 26.6 °F 18.2 °F 25.7 °F 96% 29.61 in 0.2 mi NNE 8.1 mph - 0.03 in Snow Snow
8:15 AM 26.6 °F 15.7 °F 25.7 °F 96% 29.60 in 0.5 mi NNE 12.7 mph 18.4 mph 0.02 in Snow Light Snow
8:35 AM 26.6 °F 15.2 °F 25.2 °F 94% 29.59 in 2.5 mi NNE 13.8 mph 18.4 mph 0.02 in Snow Light Snow
8:55 AM 27.0 °F 16.1 °F 24.8 °F 92% 29.59 in 7.0 mi NNE 12.7 mph 17.3 mph 0.02 in Snow Light Snow
9:15 AM 27.3 °F 16.6 °F 24.8 °F 90% 29.57 in 5.0 mi NNE 12.7 mph 19.6 mph N/A Snow Light Snow
9:35 AM 27.5 °F 16.8 °F 25.5 °F 92% 29.55 in 1.2 mi NNE 12.7 mph 21.9 mph N/A Snow Light Snow
9:55 AM 27.5 °F 19.3 °F 25.3 °F 92% 29.59 in 1.5 mi NNE 8.1 mph - N/A Snow Light Snow
10:15 AM 28.0 °F 20.0 °F 25.7 °F 91% 29.59 in 3.0 mi NNE 8.1 mph - N/A Snow Light Snow
10:35 AM 27.9 °F 17.8 °F 25.0 °F 89% 29.58 in 4.0 mi North 11.5 mph 21.9 mph N/A Snow Light Snow
10:55 AM 27.3 °F 16.1 °F 24.8 °F 90% 29.58 in 2.5 mi North 13.8 mph 23.0 mph N/A   Overcast
11:15 AM 27.3 °F 17.7 °F 24.8 °F 90% 29.58 in 2.5 mi North 10.4 mph 18.4 mph N/A Snow Light Snow
11:35 AM 27.1 °F 16.9 °F 24.4 °F 90% 29.58 in 4.0 mi North 11.5 mph 17.3 mph N/A   Overcast
11:55 AM 27.1 °F 18.2 °F 24.1 °F 88% 29.59 in 5.0 mi North 9.2 mph 17.3 mph N/A   Overcast
12:15 PM 27.0 °F 16.1 °F 23.5 °F 87% 29.60 in 7.0 mi North 12.7 mph 17.3 mph N/A   Overcast
12:35 PM 27.0 °F 16.7 °F 23.0 °F 85% 29.60 in 5.0 mi North 11.5 mph 19.6 mph N/A   Overcast
1:15 PM 26.6 °F 15.2 °F 23.2 °F 87% 29.62 in 2.5 mi North 13.8 mph 19.6 mph N/A Snow Light Snow
1:35 PM 26.6 °F 14.3 °F 23.0 °F 86% 29.63 in 1.8 mi North 16.1 mph 21.9 mph N/A Snow Light Snow
1:55 PM 26.4 °F 16.6 °F 23.4 °F 88% 29.64 in 1.2 mi North 10.4 mph 21.9 mph N/A Snow Light Snow
2:15 PM 26.2 °F 14.2 °F 23.0 °F 88% 29.65 in 1.0 mi NNW 15.0 mph 23.0 mph N/A Snow Light Snow
2:35 PM 25.7 °F 17.1 °F 23.0 °F 89% 29.66 in 1.2 mi North 8.1 mph 16.1 mph N/A Snow Light Snow
2:55 PM 25.7 °F 13.1 °F 23.4 °F 91% 29.67 in 0.8 mi NNW 16.1 mph 23.0 mph N/A Snow Light Snow
3:15 PM 25.5 °F 14.9 °F 23.0 °F 90% 29.68 in 1.2 mi North 11.5 mph 17.3 mph N/A Snow Light Snow
3:55 PM 25.2 °F 13.9 °F 22.8 °F 91% 29.70 in 1.0 mi NNW 12.7 mph 19.6 mph N/A Snow Light Snow
4:15 PM 25.3 °F 13.1 °F 22.5 °F 89% 29.71 in 1.8 mi North 15.0 mph 24.2 mph N/A Snow Light Snow
4:35 PM 25.7 °F 14.6 °F 21.7 °F 85% 29.72 in 2.5 mi North 12.7 mph 25.3 mph N/A Snow Light Snow
4:55 PM 26.1 °F 15.6 °F 22.1 °F 85% 29.73 in 3.0 mi North 11.5 mph 18.4 mph N/A Snow Light Snow
5:15 PM 26.4 °F 15.0 °F 23.0 °F 87% 29.74 in 2.5 mi NNW 13.8 mph 20.7 mph N/A Snow Light Snow
5:35 PM 27.0 °F 18.0 °F 23.9 °F 88% 29.75 in 4.0 mi North 9.2 mph 18.4 mph N/A Snow Light Snow
5:55 PM 27.3 °F 15.6 °F 24.3 °F 88% 29.76 in 3.0 mi North 15.0 mph 24.2 mph N/A Snow Light Snow
6:15 PM 27.5 °F 16.3 °F 24.4 °F 88% 29.77 in 3.0 mi NNW 13.8 mph 20.7 mph N/A   Overcast
6:35 PM 27.9 °F 16.8 °F 24.6 °F 88% 29.79 in 4.0 mi NNW 13.8 mph 21.9 mph N/A Snow Light Snow
6:55 PM 28.0 °F 17.5 °F 24.6 °F 87% 29.80 in 4.0 mi North 12.7 mph 28.8 mph N/A Snow Light Snow
7:15 PM 27.9 °F 19.8 °F 24.8 °F 88% 29.81 in 4.0 mi NNW 8.1 mph 18.4 mph N/A   Overcast
7:35 PM 27.9 °F 19.8 °F 24.8 °F 88% 29.82 in 5.0 mi North 8.1 mph 18.4 mph N/A Snow Light Snow
7:55 PM 27.5 °F 18.0 °F 24.6 °F 89% 29.83 in 10.0 mi NNW 10.4 mph - N/A Snow Light Snow
8:15 PM 27.5 °F 18.6 °F 24.4 °F 88% 29.84 in 10.0 mi North 9.2 mph 17.3 mph N/A   Overcast
8:35 PM 27.3 °F 16.6 °F 23.9 °F 87% 29.85 in 10.0 mi NNW 12.7 mph 17.3 mph N/A   Overcast
8:55 PM 27.7 °F 18.2 °F 23.9 °F 86% 29.86 in 10.0 mi North 10.4 mph 16.1 mph N/A   Overcast
9:15 PM 27.0 °F 19.5 °F 23.0 °F 85% 29.87 in 10.0 mi North 6.9 mph 16.1 mph N/A   Mostly Cloudy
9:35 PM 26.6 °F 18.2 °F 23.0 °F 86% 29.88 in 10.0 mi NNW 8.1 mph - N/A   Scattered Clouds
9:55 PM 26.1 °F 19.4 °F 22.5 °F 86% 29.89 in 10.0 mi NNW 5.8 mph - N/A   Clear
10:15 PM 24.8 °F 20.5 °F 21.7 °F 88% 29.89 in 10.0 mi NNW 3.5 mph - N/A   Clear
10:35 PM 22.5 °F 17.8 °F 20.7 °F 93% 29.89 in 10.0 mi NNW 3.5 mph - N/A   Scattered Clouds
10:55 PM 21.6 °F - 20.5 °F 96% 29.89 in 10.0 mi Calm Calm - N/A   Scattered Clouds
11:15 PM 16.9 °F - 15.4 °F 94% 29.90 in 5.0 mi Calm Calm - N/A   Clear
11:35 PM 16.7 °F - 15.6 °F 96% 29.91 in 2.5 mi Calm Calm - N/A   Clear
11:55 PM 15.1 °F - 13.3 °F 93% 29.91 in 0.8 mi Calm Calm - N/A   Mist